When you browse on this site, cookies collect data to enhance your experience and personalize the content and advertising you see.
Visit our Privacy Policy to learn more. By continuing to use the site, you agree to this use of cookies and data.
  • In Hungary
  • List of Countries
  • For 7 days
  • Water Temperature
  • Satellite Maps
  • Weather Map
  • News
  • Weather Widgets
  • user-avatar
    Login

    Hourly Weather Sana

    Today, 20 January, Sunday

    Time Temperature Precipitation Wind Pressure Humidity
    00:00 +14°C° 0 mm 0 mps 581 mmHg 63%
    01:00 +14°C° 0 mm 0 mps 580 mmHg 64%
    02:00 +13°C° 0 mm 0 mps 580 mmHg 65%
    03:00 +13°C° 0 mm 0 mps 580 mmHg 67%
    04:00 +12°C° 0 mm 0 mps 580 mmHg 67%
    05:00 +12°C° 0 mm 0 mps 580 mmHg 67%
    06:00 +11°C° 0 mm 0 mps 580 mmHg 67%
    07:00 +12°C° 0 mm 0 mps 580 mmHg 61%
    08:00 +14°C° 0 mm 0 mps 581 mmHg 56%
    09:00 +15°C° 0 mm 0 mps 582 mmHg 49%
    10:00 +19°C° 0 mm 1 mps 583 mmHg 42%
    11:00 +20°C° 0 mm 1 mps 583 mmHg 35%
    12:00 +22°C° 0 mm 1 mps 584 mmHg 29%
    13:00 +22°C° 0 mm 1 mps 583 mmHg 29%
    14:00 +23°C° 0 mm 2 mps 583 mmHg 30%
    15:00 +23°C° 0 mm 2 mps 583 mmHg 30%
    16:00 +21°C° 0 mm 2 mps 583 mmHg 36%
    17:00 +20°C° 0 mm 2 mps 582 mmHg 41%
    18:00 +19°C° 0 mm 2 mps 582 mmHg 47%
    19:00 +19°C° 0 mm 1 mps 582 mmHg 50%
    20:00 +18°C° 0 mm 1 mps 582 mmHg 54%
    21:00 +16°C° 0 mm 1 mps 582 mmHg 57%
    22:00 +16°C° 0 mm 1 mps 582 mmHg 58%
    23:00 +16°C° 0 mm 1 mps 581 mmHg 59%

    Tomorrow, 21 January, Monday

    Time Temperature Precipitation Wind Pressure Humidity
    00:00 +15°C° 0 mm 1 mps 581 mmHg 60%
    01:00 +15°C° 0 mm 1 mps 581 mmHg 60%
    02:00 +15°C° 0 mm 1 mps 581 mmHg 60%
    03:00 +14°C° 0 mm 1 mps 580 mmHg 61%
    04:00 +14°C° 0 mm 1 mps 580 mmHg 62%
    05:00 +12°C° 0 mm 0 mps 580 mmHg 64%
    06:00 +12°C° 0 mm 0 mps 580 mmHg 66%
    07:00 +13°C° 0 mm 0 mps 581 mmHg 63%
    08:00 +14°C° 0 mm 0 mps 582 mmHg 60%
    09:00 +15°C° 0 mm 0 mps 582 mmHg 58%
    10:00 +19°C° 0 mm 1 mps 583 mmHg 51%
    11:00 +20°C° 0 mm 1 mps 583 mmHg 45%
    12:00 +21°C° 0 mm 2 mps 583 mmHg 38%
    13:00 +21°C° 0 mm 2 mps 583 mmHg 38%
    14:00 +21°C° 0 mm 2 mps 583 mmHg 38%
    15:00 +23°C° 0 mm 2 mps 582 mmHg 38%
    16:00 +21°C° 0.2 mm 2 mps 582 mmHg 43%
    17:00 +20°C° 0.2 mm 2 mps 582 mmHg 48%
    18:00 +19°C° 0.2 mm 2 mps 582 mmHg 53%
    19:00 +20°C° 0.1 mm 1 mps 582 mmHg 55%
    20:00 +19°C° 0.1 mm 1 mps 582 mmHg 57%
    21:00 +18°C° 0.1 mm 1 mps 582 mmHg 59%
    22:00 +18°C° 0 mm 1 mps 581 mmHg 60%
    23:00 +18°C° 0 mm 1 mps 581 mmHg 62%

    Day after tomorrow, 22 January, Tuesday

    Time Temperature Precipitation Wind Pressure Humidity
    00:00 +15°C° 0 mm 0 mps 581 mmHg 63%
    01:00 +15°C° 0 mm 0 mps 580 mmHg 66%
    02:00 +14°C° 0 mm 0 mps 580 mmHg 68%
    03:00 +14°C° 0 mm 0 mps 579 mmHg 71%
    04:00 +13°C° 0 mm 0 mps 579 mmHg 75%
    05:00 +13°C° 0 mm 0 mps 579 mmHg 80%
    06:00 +12°C° 0 mm 0 mps 578 mmHg 84%
    07:00 +15°C° 0 mm 1 mps 580 mmHg 73%
    08:00 +16°C° 0 mm 1 mps 581 mmHg 62%
    09:00 +18°C° 0 mm 1 mps 582 mmHg 50%
    10:00 +20°C° 0 mm 1 mps 582 mmHg 41%
    11:00 +20°C° 0 mm 2 mps 582 mmHg 31%
    12:00 +23°C° 0 mm 2 mps 583 mmHg 22%
    13:00 +23°C° 0 mm 2 mps 582 mmHg 23%
    14:00 +24°C° 0 mm 2 mps 582 mmHg 24%
    15:00 +24°C° 0 mm 3 mps 581 mmHg 24%
    16:00 +22°C° 0 mm 3 mps 581 mmHg 29%
    17:00 +21°C° 0 mm 2 mps 581 mmHg 34%
    18:00 +20°C° 0 mm 2 mps 581 mmHg 39%
    19:00 +19°C° 0 mm 2 mps 581 mmHg 43%
    20:00 +20°C° 0 mm 1 mps 581 mmHg 46%
    21:00 +19°C° 0 mm 1 mps 581 mmHg 49%
    22:00 +18°C° 0 mm 1 mps 581 mmHg 50%
    23:00 +16°C° 0 mm 0 mps 580 mmHg 51%

    23 January, Wednesday

    Time Temperature Precipitation Wind Pressure Humidity
    00:00 +15°C° 0 mm 0 mps 580 mmHg 51%
    01:00 +15°C° 0 mm 0 mps 579 mmHg 54%
    02:00 +14°C° 0 mm 0 mps 579 mmHg 56%
    03:00 +14°C° 0 mm 0 mps 578 mmHg 58%
    04:00 +13°C° 0 mm 0 mps 578 mmHg 60%
    05:00 +13°C° 0 mm 0 mps 578 mmHg 62%
    06:00 +12°C° 0 mm 0 mps 578 mmHg 64%
    07:00 +14°C° 0 mm 0 mps 579 mmHg 58%
    08:00 +16°C° 0 mm 1 mps 580 mmHg 53%
    09:00 +18°C° 0 mm 1 mps 581 mmHg 47%
    10:00 +20°C° 0 mm 1 mps 581 mmHg 40%
    11:00 +21°C° 0 mm 1 mps 582 mmHg 33%
    12:00 +23°C° 0 mm 2 mps 582 mmHg 26%
    13:00 +23°C° 0 mm 2 mps 582 mmHg 26%
    14:00 +22°C° 0 mm 3 mps 581 mmHg 26%
    15:00 +24°C° 0 mm 3 mps 581 mmHg 26%
    16:00 +22°C° 0 mm 3 mps 581 mmHg 31%
    17:00 +21°C° 0 mm 2 mps 581 mmHg 35%
    18:00 +20°C° 0 mm 2 mps 581 mmHg 40%
    19:00 +20°C° 0 mm 2 mps 581 mmHg 43%
    20:00 +20°C° 0 mm 1 mps 581 mmHg 45%
    21:00 +19°C° 0 mm 1 mps 582 mmHg 48%
    22:00 +19°C° 0 mm 1 mps 581 mmHg 50%
    23:00 +18°C° 0 mm 1 mps 581 mmHg 51%

    24 January, Thursday

    Time Temperature Precipitation Wind Pressure Humidity
    00:00 +16°C° 0 mm 1 mps 580 mmHg 53%
    01:00 +16°C° 0 mm 1 mps 580 mmHg 52%
    02:00 +14°C° 0 mm 0 mps 579 mmHg 51%
    03:00 +14°C° 0 mm 0 mps 579 mmHg 50%
    04:00 +13°C° 0 mm 0 mps 579 mmHg 52%
    05:00 +13°C° 0 mm 0 mps 579 mmHg 54%
    06:00 +12°C° 0 mm 0 mps 579 mmHg 55%
    07:00 +14°C° 0 mm 0 mps 580 mmHg 51%
    08:00 +16°C° 0 mm 1 mps 581 mmHg 47%
    09:00 +18°C° 0 mm 1 mps 582 mmHg 43%
    10:00 +20°C° 0 mm 1 mps 582 mmHg 37%
    11:00 +21°C° 0 mm 1 mps 582 mmHg 30%
    12:00 +23°C° 0 mm 2 mps 583 mmHg 24%
    13:00 +23°C° 0 mm 2 mps 582 mmHg 24%
    14:00 +24°C° 0 mm 2 mps 582 mmHg 24%
    15:00 +24°C° 0 mm 2 mps 582 mmHg 24%
    16:00 +23°C° 0 mm 2 mps 582 mmHg 29%
    17:00 +23°C° 0 mm 2 mps 582 mmHg 33%
    18:00 +21°C° 0 mm 2 mps 582 mmHg 38%
    19:00 +20°C° 0 mm 2 mps 582 mmHg 41%
    20:00 +20°C° 0 mm 1 mps 582 mmHg 44%
    21:00 +20°C° 0 mm 1 mps 582 mmHg 47%
    22:00 +19°C° 0 mm 1 mps 582 mmHg 48%
    23:00 +19°C° 0 mm 1 mps 582 mmHg 50%

    25 January, Friday

    Time Temperature Precipitation Wind Pressure Humidity
    00:00 +18°C° 0 mm 1 mps 581 mmHg 52%
    01:00 +18°C° 0 mm 1 mps 581 mmHg 54%
    02:00 +16°C° 0 mm 1 mps 580 mmHg 56%
    03:00 +15°C° 0 mm 1 mps 580 mmHg 59%
    04:00 +15°C° 0 mm 1 mps 580 mmHg 60%
    05:00 +15°C° 0 mm 1 mps 580 mmHg 61%
    06:00 +14°C° 0 mm 1 mps 580 mmHg 62%
    07:00 +15°C° 0 mm 1 mps 581 mmHg 58%
    08:00 +16°C° 0 mm 1 mps 581 mmHg 53%
    09:00 +18°C° 0 mm 1 mps 582 mmHg 48%
    10:00 +20°C° 0 mm 1 mps 583 mmHg 43%
    11:00 +21°C° 0 mm 1 mps 583 mmHg 37%
    12:00 +22°C° 0 mm 1 mps 583 mmHg 31%
    13:00 +23°C° 0 mm 1 mps 583 mmHg 30%
    14:00 +24°C° 0 mm 2 mps 583 mmHg 28%
    15:00 +24°C° 0 mm 2 mps 582 mmHg 27%
    16:00 +23°C° 0 mm 2 mps 582 mmHg 29%
    17:00 +23°C° 0 mm 2 mps 582 mmHg 32%
    18:00 +21°C° 0 mm 3 mps 582 mmHg 34%
    19:00 +20°C° 0 mm 2 mps 582 mmHg 36%
    20:00 +19°C° 0 mm 2 mps 582 mmHg 38%
    21:00 +19°C° 0 mm 2 mps 582 mmHg 41%
    22:00 +18°C° 0 mm 2 mps 582 mmHg 43%
    23:00 +17°C° 0 mm 2 mps 581 mmHg 45%
    Show more